Time,TemperatureF,DewpointF,PressureIn,WindDirection,WindDirectionDegrees,WindSpeedMPH,WindSpeedGustMPH,Humidity,HourlyPrecipIn,Conditions,Clouds,dailyrainin,SoftwareType,DateUTC
2013-04-11 00:00:00,40.5,36.0,29.67,NE,45,4.5,8.1,84,0.01,RA,FEW,0.00,WeatherDisplay:10.37,2013-04-11 05:00:00,
2013-04-11 00:06:00,40.5,36.0,29.68,East,90,6.0,12.7,84,0.01,RA,FEW,0.00,WeatherDisplay:10.37,2013-04-11 05:06:00,
2013-04-11 00:11:00,40.6,36.2,29.67,NE,45,6.9,12.7,84,0.00,OVC,FEW,0.00,WeatherDisplay:10.37,2013-04-11 05:11:00,
2013-04-11 00:17:00,40.6,36.2,29.66,NE,45,8.3,11.5,84,0.00,OVC,FEW,0.00,WeatherDisplay:10.37,2013-04-11 05:17:00,
2013-04-11 00:23:00,40.6,36.2,29.66,SE,135,6.0,11.5,84,0.00,OVC,FEW,0.00,WeatherDisplay:10.37,2013-04-11 05:23:00,
2013-04-11 00:28:00,40.8,36.4,29.66,North,0,6.9,10.7,84,0.00,OVC,FEW,0.00,WeatherDisplay:10.37,2013-04-11 05:28:00,
2013-04-11 00:34:00,40.8,36.4,29.65,SE,135,6.0,12.7,84,0.00,OVC,FEW,0.00,WeatherDisplay:10.37,2013-04-11 05:34:00,
2013-04-11 00:39:00,40.8,36.4,29.65,East,90,5.4,11.5,84,0.00,OVC,FEW,0.00,WeatherDisplay:10.37,2013-04-11 05:39:00,
2013-04-11 00:45:00,40.8,36.4,29.65,NE,45,5.4,10.7,84,0.00,OVC,FEW,0.00,WeatherDisplay:10.37,2013-04-11 05:45:00,
2013-04-11 00:51:00,40.8,36.4,29.65,NE,45,6.9,10.7,84,0.00,OVC,FEW,0.00,WeatherDisplay:10.37,2013-04-11 05:51:00,
2013-04-11 00:56:00,40.6,36.2,29.65,East,90,5.4,10.4,84,0.00,OVC,FEW,0.00,WeatherDisplay:10.37,2013-04-11 05:56:00,
2013-04-11 01:02:00,40.8,36.4,29.64,NE,45,6.0,8.1,84,0.00,OVC,FEW,0.00,WeatherDisplay:10.37,2013-04-11 06:02:00,
2013-04-11 01:07:00,40.8,36.4,29.65,NE,45,5.4,8.1,84,0.00,OVC,FEW,0.00,WeatherDisplay:10.37,2013-04-11 06:07:00,
2013-04-11 01:13:00,41.0,36.5,29.65,ENE,68,4.5,10.4,84,0.00,OVC,FEW,0.00,WeatherDisplay:10.37,2013-04-11 06:13:00,
2013-04-11 01:19:00,41.0,36.5,29.65,East,90,5.4,10.7,84,0.00,OVC,FEW,0.00,WeatherDisplay:10.37,2013-04-11 06:19:00,
2013-04-11 01:24:00,41.0,36.5,29.65,East,90,5.4,15.0,84,0.00,OVC,FEW,0.00,WeatherDisplay:10.37,2013-04-11 06:24:00,
2013-04-11 01:30:00,41.0,36.5,29.65,NE,45,4.5,15.0,84,0.00,OVC,FEW,0.00,WeatherDisplay:10.37,2013-04-11 06:30:00,
2013-04-11 01:35:00,41.0,36.5,29.65,East,90,6.9,10.4,84,0.00,OVC,FEW,0.00,WeatherDisplay:10.37,2013-04-11 06:35:00,
2013-04-11 01:41:00,41.0,36.5,29.63,East,90,5.4,12.7,84,0.00,OVC,FEW,0.00,WeatherDisplay:10.37,2013-04-11 06:41:00,
2013-04-11 01:47:00,41.0,36.5,29.64,East,90,8.3,17.3,84,0.00,OVC,FEW,0.00,WeatherDisplay:10.37,2013-04-11 06:47:00,
2013-04-11 01:52:00,41.0,36.5,29.62,NE,45,5.4,9.2,84,0.00,OVC,FEW,0.00,WeatherDisplay:10.37,2013-04-11 06:52:00,
2013-04-11 01:58:00,40.8,36.4,29.63,NE,45,4.5,10.4,84,0.00,OVC,FEW,0.00,WeatherDisplay:10.37,2013-04-11 06:58:00,
2013-04-11 02:03:00,40.8,36.4,29.62,NE,45,3.8,9.2,84,0.00,OVC,FEW,0.00,WeatherDisplay:10.37,2013-04-11 07:03:00,
2013-04-11 02:09:00,40.8,36.4,29.63,SE,135,5.4,8.3,84,0.00,OVC,FEW,0.00,WeatherDisplay:10.37,2013-04-11 07:09:00,
2013-04-11 02:15:00,40.8,36.4,29.62,NE,45,6.0,11.5,84,0.00,OVC,FEW,0.00,WeatherDisplay:10.37,2013-04-11 07:15:00,
2013-04-11 02:20:00,40.8,36.4,29.62,East,90,5.4,8.1,84,0.00,OVC,FEW,0.00,WeatherDisplay:10.37,2013-04-11 07:20:00,
2013-04-11 02:27:00,40.8,36.4,29.62,NE,45,6.9,11.5,84,0.00,OVC,FEW,0.00,WeatherDisplay:10.37,2013-04-11 07:27:00,
2013-04-11 02:32:00,40.8,36.4,29.62,East,90,2.2,11.5,84,0.00,OVC,FEW,0.00,WeatherDisplay:10.37,2013-04-11 07:32:00,
2013-04-11 02:38:00,40.8,36.4,29.61,East,90,4.5,13.8,84,0.00,OVC,FEW,0.00,WeatherDisplay:10.37,2013-04-11 07:38:00,
2013-04-11 02:43:00,40.8,36.4,29.62,East,90,3.8,9.2,84,0.00,OVC,FEW,0.00,WeatherDisplay:10.37,2013-04-11 07:43:00,
2013-04-11 02:49:00,40.6,36.2,29.61,East,90,3.1,11.5,84,0.00,OVC,FEW,0.00,WeatherDisplay:10.37,2013-04-11 07:49:00,
2013-04-11 02:55:00,40.6,36.2,29.62,East,90,4.5,8.3,84,0.00,OVC,FEW,0.00,WeatherDisplay:10.37,2013-04-11 07:55:00,
2013-04-11 03:00:00,40.5,36.0,29.61,East,90,3.8,8.1,84,0.00,OVC,FEW,0.00,WeatherDisplay:10.37,2013-04-11 08:00:00,
2013-04-11 03:06:00,40.5,36.0,29.62,ESE,112,3.8,8.1,84,0.00,OVC,FEW,0.00,WeatherDisplay:10.37,2013-04-11 08:06:00,
2013-04-11 03:11:00,40.5,36.0,29.61,SE,135,3.1,6.9,84,0.00,OVC,FEW,0.00,WeatherDisplay:10.37,2013-04-11 08:11:00,
2013-04-11 03:17:00,40.5,36.0,29.60,SE,135,3.8,8.1,84,0.01,RA,FEW,0.01,WeatherDisplay:10.37,2013-04-11 08:17:00,
2013-04-11 03:23:00,40.5,36.0,29.60,SE,135,1.6,5.8,84,0.01,RA,FEW,0.01,WeatherDisplay:10.37,2013-04-11 08:23:00,
2013-04-11 03:28:00,40.5,36.0,29.60,NE,45,2.2,8.1,84,0.01,OVC,FEW,0.01,WeatherDisplay:10.37,2013-04-11 08:28:00,
2013-04-11 03:34:00,40.5,36.0,29.59,NE,45,3.1,9.2,84,0.01,OVC,FEW,0.01,WeatherDisplay:10.37,2013-04-11 08:34:00,
2013-04-11 03:39:00,40.3,35.8,29.59,East,90,3.8,5.8,84,0.01,OVC,FEW,0.01,WeatherDisplay:10.37,2013-04-11 08:39:00,
2013-04-11 03:45:00,40.5,36.0,29.59,NE,45,3.1,5.8,84,0.01,OVC,FEW,0.01,WeatherDisplay:10.37,2013-04-11 08:45:00,
2013-04-11 03:51:00,40.5,36.0,29.59,East,90,3.1,5.8,84,0.01,OVC,FEW,0.01,WeatherDisplay:10.37,2013-04-11 08:51:00,
2013-04-11 03:56:00,40.5,36.0,29.59,East,90,3.1,6.9,84,0.01,OVC,FEW,0.01,WeatherDisplay:10.37,2013-04-11 08:56:00,
2013-04-11 04:02:00,40.5,36.0,29.60,East,90,0.7,3.5,84,0.01,OVC,FEW,0.01,WeatherDisplay:10.37,2013-04-11 09:02:00,
2013-04-11 04:07:00,40.5,36.0,29.59,East,90,0.7,3.5,84,0.01,OVC,FEW,0.01,WeatherDisplay:10.37,2013-04-11 09:07:00,
2013-04-11 04:13:00,40.8,36.4,29.58,North,0,1.6,3.5,84,0.01,OVC,FEW,0.01,WeatherDisplay:10.37,2013-04-11 09:13:00,
2013-04-11 04:19:00,40.8,36.4,29.59,NE,45,2.2,6.9,84,0.00,OVC,FEW,0.01,WeatherDisplay:10.37,2013-04-11 09:19:00,
2013-04-11 04:24:00,40.6,36.2,29.59,East,90,2.2,6.9,84,0.01,RA,FEW,0.02,WeatherDisplay:10.37,2013-04-11 09:24:00,
2013-04-11 04:30:00,41.0,36.5,29.60,East,90,3.1,6.9,84,0.01,RA,FEW,0.02,WeatherDisplay:10.37,2013-04-11 09:30:00,
2013-04-11 04:35:00,40.8,36.4,29.60,SE,135,0.7,3.5,84,0.01,OVC,FEW,0.02,WeatherDisplay:10.37,2013-04-11 09:35:00,
2013-04-11 04:41:00,40.8,36.4,29.60,East,90,2.2,6.9,84,0.01,OVC,FEW,0.02,WeatherDisplay:10.37,2013-04-11 09:41:00,
2013-04-11 04:47:00,41.0,36.5,29.60,East,90,1.6,3.5,84,0.01,OVC,FEW,0.02,WeatherDisplay:10.37,2013-04-11 09:47:00,
2013-04-11 04:52:00,41.0,36.5,29.60,SSE,158,2.2,4.6,84,0.02,RA,FEW,0.04,WeatherDisplay:10.37,2013-04-11 09:52:00,
2013-04-11 04:58:00,41.0,36.5,29.60,East,90,1.6,5.8,84,0.02,RA,FEW,0.04,WeatherDisplay:10.37,2013-04-11 09:58:00,
2013-04-11 05:03:00,41.0,36.5,29.60,East,90,1.6,3.5,84,0.02,OVC,FEW,0.04,WeatherDisplay:10.37,2013-04-11 10:03:00,
2013-04-11 05:09:00,41.0,36.5,29.60,East,90,3.1,6.9,84,0.02,OVC,FEW,0.04,WeatherDisplay:10.37,2013-04-11 10:09:00,
2013-04-11 05:15:00,41.2,36.7,29.59,East,90,2.2,3.8,84,0.02,OVC,FEW,0.04,WeatherDisplay:10.37,2013-04-11 10:15:00,
2013-04-11 05:20:00,41.0,36.5,29.59,NE,45,1.6,5.8,84,0.02,OVC,FEW,0.04,WeatherDisplay:10.37,2013-04-11 10:20:00,
2013-04-11 05:26:00,41.2,36.7,29.59,NE,45,1.6,6.9,84,0.02,RA,FEW,0.05,WeatherDisplay:10.37,2013-04-11 10:26:00,
2013-04-11 05:32:00,41.0,36.5,29.58,East,90,3.8,6.0,84,0.02,OVC,FEW,0.05,WeatherDisplay:10.37,2013-04-11 10:32:00,
2013-04-11 05:38:00,41.0,36.5,29.58,NE,45,4.5,12.7,84,0.02,OVC,FEW,0.05,WeatherDisplay:10.37,2013-04-11 10:38:00,
2013-04-11 05:43:00,41.2,36.7,29.58,East,90,4.5,7.6,84,0.02,OVC,FEW,0.05,WeatherDisplay:10.37,2013-04-11 10:43:00,
2013-04-11 05:49:00,41.2,36.7,29.58,SE,135,3.8,6.0,84,0.02,OVC,FEW,0.05,WeatherDisplay:10.37,2013-04-11 10:49:00,
2013-04-11 05:55:00,41.2,36.7,29.58,East,90,0.0,4.6,84,0.01,OVC,FEW,0.05,WeatherDisplay:10.37,2013-04-11 10:55:00,
2013-04-11 06:00:00,41.2,36.7,29.58,NE,45,2.2,8.1,84,0.01,OVC,FEW,0.05,WeatherDisplay:10.37,2013-04-11 11:00:00,
2013-04-11 06:06:00,41.2,36.7,29.58,East,90,0.7,3.8,84,0.01,OVC,FEW,0.05,WeatherDisplay:10.37,2013-04-11 11:06:00,
2013-04-11 06:11:00,41.2,36.7,29.56,East,90,3.1,5.8,84,0.01,OVC,FEW,0.05,WeatherDisplay:10.37,2013-04-11 11:11:00,
2013-04-11 06:17:00,41.2,36.7,29.56,NE,45,3.1,5.8,84,0.01,OVC,FEW,0.05,WeatherDisplay:10.37,2013-04-11 11:17:00,
2013-04-11 06:23:00,41.2,36.7,29.56,NW,315,0.7,8.1,84,0.00,OVC,FEW,0.05,WeatherDisplay:10.37,2013-04-11 11:23:00,
2013-04-11 06:28:00,41.2,36.7,29.55,East,90,3.8,6.9,84,0.00,OVC,FEW,0.05,WeatherDisplay:10.37,2013-04-11 11:28:00,
2013-04-11 06:34:00,41.2,36.7,29.56,NE,45,1.6,5.8,84,0.00,OVC,FEW,0.05,WeatherDisplay:10.37,2013-04-11 11:34:00,
2013-04-11 06:39:00,41.2,36.7,29.56,NE,45,2.2,3.8,84,0.00,OVC,FEW,0.05,WeatherDisplay:10.37,2013-04-11 11:39:00,
2013-04-11 06:45:00,41.4,36.9,29.56,NE,45,0.7,3.5,84,0.00,OVC,FEW,0.05,WeatherDisplay:10.37,2013-04-11 11:45:00,
2013-04-11 06:51:00,41.5,37.1,29.56,East,90,2.2,4.6,84,0.00,OVC,FEW,0.05,WeatherDisplay:10.37,2013-04-11 11:51:00,
2013-04-11 06:56:00,41.4,36.9,29.57,North,0,0.0,3.5,84,0.00,OVC,FEW,0.05,WeatherDisplay:10.37,2013-04-11 11:56:00,
2013-04-11 07:02:00,41.4,36.9,29.58,North,0,0.0,1.2,84,0.00,OVC,FEW,0.05,WeatherDisplay:10.37,2013-04-11 12:02:00,
2013-04-11 07:07:00,41.5,37.1,29.59,SE,135,0.7,3.5,84,0.00,OVC,FEW,0.05,WeatherDisplay:10.37,2013-04-11 12:07:00,
2013-04-11 07:13:00,41.5,37.1,29.59,East,90,1.6,4.6,84,0.00,OVC,FEW,0.05,WeatherDisplay:10.37,2013-04-11 12:13:00,
2013-04-11 07:19:00,41.7,37.2,29.59,SE,135,0.7,3.5,84,0.00,OVC,FEW,0.05,WeatherDisplay:10.37,2013-04-11 12:19:00,
2013-04-11 07:24:00,41.7,37.2,29.59,South,180,1.6,3.5,84,0.00,OVC,FEW,0.05,WeatherDisplay:10.37,2013-04-11 12:24:00,
2013-04-11 07:30:00,41.7,37.2,29.58,East,90,0.7,3.5,84,0.00,OVC,FEW,0.05,WeatherDisplay:10.37,2013-04-11 12:30:00,
2013-04-11 07:35:00,41.7,37.2,29.58,North,0,0.0,3.5,84,0.00,OVC,FEW,0.05,WeatherDisplay:10.37,2013-04-11 12:35:00,
2013-04-11 07:41:00,41.5,37.1,29.58,East,90,1.6,3.5,84,0.00,OVC,FEW,0.05,WeatherDisplay:10.37,2013-04-11 12:41:00,
2013-04-11 07:47:00,41.7,37.2,29.58,NE,45,1.6,3.8,84,0.00,OVC,FEW,0.05,WeatherDisplay:10.37,2013-04-11 12:47:00,
2013-04-11 07:52:00,41.7,37.2,29.57,SE,135,1.6,4.6,84,0.00,OVC,FEW,0.05,WeatherDisplay:10.37,2013-04-11 12:52:00,
2013-04-11 07:58:00,41.9,37.4,29.57,East,90,0.7,2.3,84,0.00,OVC,FEW,0.05,WeatherDisplay:10.37,2013-04-11 12:58:00,
2013-04-11 08:03:00,42.1,37.6,29.58,NE,45,0.7,2.3,84,0.00,OVC,FEW,0.05,WeatherDisplay:10.37,2013-04-11 13:03:00,
2013-04-11 08:09:00,42.1,37.6,29.58,East,90,1.6,2.3,84,0.00,OVC,FEW,0.05,WeatherDisplay:10.37,2013-04-11 13:09:00,
2013-04-11 08:15:00,42.1,37.6,29.58,East,90,1.6,3.5,84,0.00,OVC,FEW,0.05,WeatherDisplay:10.37,2013-04-11 13:15:00,
2013-04-11 08:20:00,42.1,37.6,29.57,East,90,0.7,2.3,84,0.00,OVC,FEW,0.05,WeatherDisplay:10.37,2013-04-11 13:20:00,
2013-04-11 08:27:00,42.3,37.8,29.57,NE,45,0.7,3.5,84,0.00,OVC,FEW,0.05,WeatherDisplay:10.37,2013-04-11 13:27:00,
2013-04-11 08:32:00,42.4,37.9,29.58,East,90,1.6,3.8,84,0.00,OVC,FEW,0.05,WeatherDisplay:10.37,2013-04-11 13:32:00,
2013-04-11 08:38:00,42.4,37.9,29.58,East,90,0.7,2.2,84,0.00,OVC,FEW,0.05,WeatherDisplay:10.37,2013-04-11 13:38:00,
2013-04-11 08:43:00,42.6,38.1,29.58,NE,45,0.7,2.3,84,0.00,OVC,FEW,0.05,WeatherDisplay:10.37,2013-04-11 13:43:00,
2013-04-11 08:49:00,42.6,38.1,29.56,East,90,1.6,4.6,84,0.00,OVC,FEW,0.05,WeatherDisplay:10.37,2013-04-11 13:49:00,
2013-04-11 08:55:00,42.8,38.3,29.57,South,180,1.6,3.5,84,0.00,OVC,FEW,0.05,WeatherDisplay:10.37,2013-04-11 13:55:00,
2013-04-11 09:00:00,42.8,38.3,29.57,East,90,0.7,3.5,84,0.00,OVC,FEW,0.05,WeatherDisplay:10.37,2013-04-11 14:00:00,
2013-04-11 09:06:00,42.8,38.3,29.57,NE,45,0.7,3.5,84,0.00,OVC,FEW,0.05,WeatherDisplay:10.37,2013-04-11 14:06:00,
2013-04-11 09:11:00,42.8,38.3,29.56,SE,135,0.0,2.3,84,0.00,OVC,FEW,0.05,WeatherDisplay:10.37,2013-04-11 14:11:00,
2013-04-11 09:17:00,43.0,38.5,29.55,East,90,0.0,2.3,84,0.00,OVC,FEW,0.05,WeatherDisplay:10.37,2013-04-11 14:17:00,
2013-04-11 09:23:00,43.0,38.5,29.57,South,180,1.6,3.5,84,0.00,OVC,FEW,0.05,WeatherDisplay:10.37,2013-04-11 14:23:00,
2013-04-11 09:28:00,43.0,38.5,29.57,NE,45,0.7,3.5,84,0.00,OVC,FEW,0.05,WeatherDisplay:10.37,2013-04-11 14:28:00,
2013-04-11 09:34:00,43.2,38.7,29.57,SE,135,0.0,1.2,84,0.00,OVC,FEW,0.05,WeatherDisplay:10.37,2013-04-11 14:34:00,
2013-04-11 09:39:00,43.2,38.7,29.56,SE,135,1.6,2.2,84,0.00,OVC,FEW,0.05,WeatherDisplay:10.37,2013-04-11 14:39:00,
2013-04-11 09:45:00,43.3,38.8,29.56,East,90,0.7,2.3,84,0.00,OVC,FEW,0.05,WeatherDisplay:10.37,2013-04-11 14:45:00,
2013-04-11 09:51:00,43.3,38.8,29.57,SE,135,0.0,2.3,84,0.00,OVC,FEW,0.06,WeatherDisplay:10.37,2013-04-11 14:51:00,
2013-04-11 09:56:00,43.5,39.0,29.58,SE,135,0.7,2.3,84,0.01,RA,FEW,0.06,WeatherDisplay:10.37,2013-04-11 14:56:00,
2013-04-11 10:03:00,43.7,39.2,29.58,West,270,0.7,2.3,84,0.01,OVC,FEW,0.06,WeatherDisplay:10.37,2013-04-11 15:03:00,
2013-04-11 10:08:00,43.7,39.2,29.57,SSE,158,1.6,3.5,84,0.01,OVC,FEW,0.06,WeatherDisplay:10.37,2013-04-11 15:08:00,
2013-04-11 10:14:00,43.9,39.4,29.56,SE,135,0.7,3.5,84,0.01,OVC,FEW,0.06,WeatherDisplay:10.37,2013-04-11 15:14:00,
2013-04-11 10:19:00,43.9,39.4,29.56,ESE,112,0.7,2.3,84,0.01,OVC,FEW,0.06,WeatherDisplay:10.37,2013-04-11 15:19:00,
2013-04-11 10:25:00,44.1,39.5,29.56,NE,45,0.0,1.2,84,0.01,OVC,FEW,0.06,WeatherDisplay:10.37,2013-04-11 15:25:00,
2013-04-11 10:31:00,44.2,39.7,29.56,East,90,0.7,2.3,84,0.01,OVC,FEW,0.06,WeatherDisplay:10.37,2013-04-11 15:31:00,
2013-04-11 10:36:00,44.6,40.1,29.57,East,90,1.6,3.8,84,0.01,OVC,FEW,0.06,WeatherDisplay:10.37,2013-04-11 15:36:00,
2013-04-11 10:42:00,45.0,40.4,29.56,NE,45,2.2,3.8,84,0.01,OVC,FEW,0.06,WeatherDisplay:10.37,2013-04-11 15:42:00,
2013-04-11 10:47:00,45.1,40.6,29.56,NE,45,0.7,4.6,84,0.01,OVC,FEW,0.06,WeatherDisplay:10.37,2013-04-11 15:47:00,
2013-04-11 10:53:00,45.3,40.8,29.56,NE,45,0.0,1.2,84,0.00,OVC,FEW,0.06,WeatherDisplay:10.37,2013-04-11 15:53:00,
2013-04-11 10:59:00,45.9,41.3,29.56,East,90,0.0,1.2,84,0.00,OVC,FEW,0.06,WeatherDisplay:10.37,2013-04-11 15:59:00,
2013-04-11 11:04:00,46.0,41.5,29.56,South,180,0.7,2.2,84,0.00,OVC,FEW,0.06,WeatherDisplay:10.37,2013-04-11 16:04:00,
2013-04-11 11:10:00,46.0,41.5,29.56,West,270,0.0,1.2,84,0.00,OVC,FEW,0.06,WeatherDisplay:10.37,2013-04-11 16:10:00,
2013-04-11 11:15:00,45.9,41.3,29.56,East,90,0.0,1.2,84,0.00,OVC,FEW,0.06,WeatherDisplay:10.37,2013-04-11 16:15:00,
2013-04-11 11:22:00,45.9,41.3,29.56,SW,225,0.0,2.3,84,0.00,OVC,FEW,0.06,WeatherDisplay:10.37,2013-04-11 16:22:00,
2013-04-11 11:27:00,45.9,41.3,29.57,SW,225,0.7,1.2,84,0.00,OVC,FEW,0.06,WeatherDisplay:10.37,2013-04-11 16:27:00,
2013-04-11 11:33:00,45.9,41.3,29.56,West,270,0.0,2.3,84,0.00,OVC,FEW,0.06,WeatherDisplay:10.37,2013-04-11 16:33:00,
2013-04-11 11:39:00,45.9,41.3,29.56,West,270,0.0,1.6,84,0.00,OVC,FEW,0.06,WeatherDisplay:10.37,2013-04-11 16:39:00,
2013-04-11 11:44:00,45.5,40.9,29.55,South,180,0.0,1.6,84,0.00,OVC,FEW,0.06,WeatherDisplay:10.37,2013-04-11 16:44:00,
2013-04-11 11:50:00,45.5,40.9,29.56,SE,135,0.0,2.2,84,0.00,OVC,FEW,0.06,WeatherDisplay:10.37,2013-04-11 16:50:00,
2013-04-11 11:55:00,45.5,40.9,29.56,SW,225,0.7,3.5,84,0.00,OVC,FEW,0.06,WeatherDisplay:10.37,2013-04-11 16:55:00,
2013-04-11 12:02:00,45.7,41.1,29.56,SW,225,0.0,1.2,84,0.00,OVC,FEW,0.06,WeatherDisplay:10.37,2013-04-11 17:02:00,
2013-04-11 12:07:00,45.7,41.1,29.56,South,180,0.0,2.3,84,0.00,OVC,FEW,0.06,WeatherDisplay:10.37,2013-04-11 17:07:00,
2013-04-11 12:13:00,45.9,41.3,29.56,South,180,0.7,3.5,84,0.00,OVC,FEW,0.06,WeatherDisplay:10.37,2013-04-11 17:13:00,
2013-04-11 12:19:00,45.9,41.3,29.56,SE,135,3.1,6.9,84,0.00,OVC,FEW,0.06,WeatherDisplay:10.37,2013-04-11 17:19:00,
2013-04-11 12:24:00,45.5,40.9,29.56,SW,225,2.2,5.8,84,0.00,OVC,FEW,0.06,WeatherDisplay:10.37,2013-04-11 17:24:00,
2013-04-11 12:30:00,45.9,41.3,29.57,South,180,0.7,5.8,84,0.00,OVC,FEW,0.06,WeatherDisplay:10.37,2013-04-11 17:30:00,
2013-04-11 12:35:00,46.2,41.7,29.56,South,180,0.0,3.5,84,0.00,OVC,FEW,0.06,WeatherDisplay:10.37,2013-04-11 17:35:00,
2013-04-11 12:41:00,46.8,42.2,29.56,SW,225,0.7,3.5,84,0.00,OVC,FEW,0.06,WeatherDisplay:10.37,2013-04-11 17:41:00,
2013-04-11 12:47:00,46.8,42.2,29.55,NW,315,1.6,4.6,84,0.00,OVC,FEW,0.06,WeatherDisplay:10.37,2013-04-11 17:47:00,
2013-04-11 12:52:00,46.8,42.2,29.55,SW,225,1.6,3.5,84,0.00,OVC,FEW,0.06,WeatherDisplay:10.37,2013-04-11 17:52:00,
2013-04-11 12:58:00,46.9,42.4,29.55,SW,225,0.0,1.2,84,0.00,OVC,FEW,0.06,WeatherDisplay:10.37,2013-04-11 17:58:00,
2013-04-11 13:03:00,46.9,42.4,29.55,SW,225,2.2,3.5,84,0.00,OVC,FEW,0.06,WeatherDisplay:10.37,2013-04-11 18:03:00,
2013-04-11 13:09:00,46.8,42.2,29.54,South,180,0.7,3.5,84,0.00,OVC,FEW,0.06,WeatherDisplay:10.37,2013-04-11 18:09:00,
2013-04-11 13:15:00,46.9,42.4,29.55,SSE,158,1.6,3.5,84,0.00,OVC,FEW,0.06,WeatherDisplay:10.37,2013-04-11 18:15:00,
2013-04-11 13:20:00,46.8,42.2,29.55,NW,315,0.0,4.6,84,0.00,OVC,FEW,0.06,WeatherDisplay:10.37,2013-04-11 18:20:00,
2013-04-11 13:26:00,46.6,42.0,29.54,NW,315,0.0,3.5,84,0.00,OVC,FEW,0.06,WeatherDisplay:10.37,2013-04-11 18:26:00,
2013-04-11 13:32:00,46.9,42.4,29.54,SW,225,0.0,2.2,84,0.00,OVC,FEW,0.06,WeatherDisplay:10.37,2013-04-11 18:32:00,
2013-04-11 13:37:00,47.1,42.5,29.54,SW,225,0.0,2.3,84,0.00,OVC,FEW,0.06,WeatherDisplay:10.37,2013-04-11 18:37:00,
2013-04-11 13:43:00,47.1,42.5,29.54,NW,315,0.7,3.5,84,0.00,OVC,FEW,0.06,WeatherDisplay:10.37,2013-04-11 18:43:00,
2013-04-11 13:48:00,46.6,42.0,29.54,South,180,0.7,3.5,84,0.00,OVC,FEW,0.06,WeatherDisplay:10.37,2013-04-11 18:48:00,
2013-04-11 13:54:00,46.2,41.7,29.55,SW,225,0.0,2.3,84,0.00,OVC,FEW,0.06,WeatherDisplay:10.37,2013-04-11 18:54:00,
2013-04-11 13:59:00,46.2,41.7,29.55,SW,225,1.6,2.3,84,0.00,OVC,FEW,0.06,WeatherDisplay:10.37,2013-04-11 18:59:00,
2013-04-11 14:05:00,46.6,42.0,29.55,SW,225,1.6,3.5,84,0.00,OVC,FEW,0.06,WeatherDisplay:10.37,2013-04-11 19:05:00,
2013-04-11 14:11:00,46.9,42.4,29.55,East,90,0.7,3.5,84,0.00,OVC,FEW,0.06,WeatherDisplay:10.37,2013-04-11 19:11:00,
2013-04-11 14:16:00,47.8,43.2,29.55,SE,135,0.7,3.5,84,0.00,OVC,FEW,0.06,WeatherDisplay:10.37,2013-04-11 19:16:00,
2013-04-11 14:22:00,48.2,43.6,29.55,SW,225,1.6,3.5,84,0.00,OVC,FEW,0.06,WeatherDisplay:10.37,2013-04-11 19:22:00,
2013-04-11 14:27:00,48.4,43.8,29.54,SE,135,0.7,3.5,84,0.00,OVC,FEW,0.06,WeatherDisplay:10.37,2013-04-11 19:27:00,
2013-04-11 14:33:00,48.2,43.6,29.54,South,180,0.0,4.6,84,0.00,OVC,FEW,0.06,WeatherDisplay:10.37,2013-04-11 19:33:00,
2013-04-11 14:39:00,47.8,43.2,29.54,SW,225,1.6,5.8,84,0.00,OVC,FEW,0.06,WeatherDisplay:10.37,2013-04-11 19:39:00,
2013-04-11 14:44:00,47.8,43.2,29.55,SW,225,0.7,4.6,84,0.00,OVC,FEW,0.06,WeatherDisplay:10.37,2013-04-11 19:44:00,
2013-04-11 14:50:00,47.7,43.1,29.54,West,270,0.0,4.6,84,0.00,OVC,FEW,0.06,WeatherDisplay:10.37,2013-04-11 19:50:00,
2013-04-11 14:55:00,47.5,42.9,29.55,South,180,0.7,3.5,84,0.00,OVC,FEW,0.06,WeatherDisplay:10.37,2013-04-11 19:55:00,
2013-04-11 15:01:00,47.5,42.9,29.55,South,180,0.7,2.3,84,0.00,OVC,FEW,0.06,WeatherDisplay:10.37,2013-04-11 20:01:00,
2013-04-11 15:07:00,47.7,43.1,29.54,SW,225,1.6,4.6,84,0.00,OVC,FEW,0.06,WeatherDisplay:10.37,2013-04-11 20:07:00,
2013-04-11 15:12:00,47.7,43.1,29.55,South,180,2.2,3.5,84,0.00,OVC,FEW,0.06,WeatherDisplay:10.37,2013-04-11 20:12:00,
2013-04-11 15:18:00,47.3,42.7,29.54,South,180,1.6,3.5,84,0.01,RA,FEW,0.07,WeatherDisplay:10.37,2013-04-11 20:18:00,
2013-04-11 15:23:00,47.5,42.9,29.54,West,270,2.2,4.6,84,0.01,RA,FEW,0.07,WeatherDisplay:10.37,2013-04-11 20:23:00,
2013-04-11 15:29:00,47.7,43.1,29.55,SW,225,1.6,3.1,84,0.01,OVC,FEW,0.07,WeatherDisplay:10.37,2013-04-11 20:29:00,
2013-04-11 15:35:00,48.2,43.6,29.54,SE,135,0.7,2.3,84,0.01,OVC,FEW,0.07,WeatherDisplay:10.37,2013-04-11 20:35:00,
2013-04-11 15:40:00,48.4,43.8,29.53,SSE,158,0.7,3.5,84,0.01,OVC,FEW,0.07,WeatherDisplay:10.37,2013-04-11 20:40:00,
2013-04-11 15:46:00,48.7,44.1,29.54,SW,225,0.7,2.3,84,0.01,OVC,FEW,0.07,WeatherDisplay:10.37,2013-04-11 20:46:00,
2013-04-11 15:51:00,49.1,44.5,29.53,South,180,2.2,4.6,84,0.01,OVC,FEW,0.07,WeatherDisplay:10.37,2013-04-11 20:51:00,
2013-04-11 15:57:00,48.4,43.8,29.53,SW,225,4.5,11.4,84,0.01,OVC,FEW,0.07,WeatherDisplay:10.37,2013-04-11 20:57:00,
2013-04-11 16:03:00,48.2,43.6,29.54,South,180,2.2,4.5,84,0.01,OVC,FEW,0.07,WeatherDisplay:10.37,2013-04-11 21:03:00,
2013-04-11 16:09:00,47.7,43.1,29.54,SW,225,4.5,17.3,84,0.02,RA,FEW,0.08,WeatherDisplay:10.37,2013-04-11 21:09:00,
2013-04-11 16:15:00,47.1,42.5,29.55,SW,225,4.5,8.1,84,0.02,RA,FEW,0.08,WeatherDisplay:10.37,2013-04-11 21:15:00,
2013-04-11 16:20:00,46.4,41.8,29.55,NW,315,1.6,13.8,84,0.01,OVC,FEW,0.08,WeatherDisplay:10.37,2013-04-11 21:20:00,
2013-04-11 16:26:00,46.6,42.0,29.55,SW,225,1.6,9.2,84,0.01,OVC,FEW,0.08,WeatherDisplay:10.37,2013-04-11 21:26:00,
2013-04-11 16:32:00,45.7,41.1,29.55,South,180,2.2,15.0,84,0.02,RA,FEW,0.09,WeatherDisplay:10.37,2013-04-11 21:32:00,
2013-04-11 16:38:00,46.0,41.5,29.54,West,270,3.1,9.8,84,0.02,RA,FEW,0.09,WeatherDisplay:10.37,2013-04-11 21:38:00,
2013-04-11 16:43:00,46.8,42.2,29.54,SW,225,3.1,5.8,84,0.02,OVC,FEW,0.09,WeatherDisplay:10.37,2013-04-11 21:43:00,
2013-04-11 16:49:00,46.4,41.8,29.53,SW,225,5.4,15.0,84,0.02,OVC,FEW,0.09,WeatherDisplay:10.37,2013-04-11 21:49:00,
2013-04-11 16:55:00,46.0,41.5,29.54,SW,225,4.5,10.4,84,0.02,OVC,FEW,0.09,WeatherDisplay:10.37,2013-04-11 21:55:00,
2013-04-11 17:00:00,45.5,40.9,29.55,WSW,248,3.8,10.4,84,0.02,OVC,FEW,0.09,WeatherDisplay:10.37,2013-04-11 22:00:00,
2013-04-11 17:06:00,45.0,40.4,29.55,SW,225,5.4,10.4,84,0.02,OVC,FEW,0.09,WeatherDisplay:10.37,2013-04-11 22:06:00,
2013-04-11 17:12:00,44.6,40.1,29.54,SW,225,2.2,5.8,84,0.01,OVC,FEW,0.09,WeatherDisplay:10.37,2013-04-11 22:12:00,
2013-04-11 17:17:00,44.6,40.1,29.53,SW,225,1.6,8.1,84,0.01,OVC,FEW,0.09,WeatherDisplay:10.37,2013-04-11 22:17:00,
2013-04-11 17:23:00,44.4,39.9,29.53,SW,225,3.1,8.1,84,0.01,OVC,FEW,0.09,WeatherDisplay:10.37,2013-04-11 22:23:00,
2013-04-11 17:28:00,43.7,39.2,29.55,SW,225,4.5,15.0,84,0.01,OVC,FEW,0.09,WeatherDisplay:10.37,2013-04-11 22:28:00,
2013-04-11 17:34:00,43.3,38.8,29.55,SW,225,2.2,4.6,84,0.00,OVC,FEW,0.09,WeatherDisplay:10.37,2013-04-11 22:34:00,
2013-04-11 17:39:00,43.2,38.7,29.55,SW,225,3.8,6.0,84,0.00,OVC,FEW,0.09,WeatherDisplay:10.37,2013-04-11 22:39:00,
2013-04-11 17:45:00,43.0,38.5,29.55,SW,225,3.1,13.8,84,0.00,OVC,FEW,0.09,WeatherDisplay:10.37,2013-04-11 22:45:00,
2013-04-11 17:51:00,43.0,38.5,29.55,SW,225,4.5,7.6,84,0.00,OVC,FEW,0.09,WeatherDisplay:10.37,2013-04-11 22:51:00,
2013-04-11 17:56:00,43.0,38.5,29.56,SE,135,2.2,5.8,84,0.00,OVC,FEW,0.09,WeatherDisplay:10.37,2013-04-11 22:56:00,
2013-04-11 18:02:00,42.6,38.1,29.56,West,270,5.4,8.1,84,0.00,OVC,FEW,0.09,WeatherDisplay:10.37,2013-04-11 23:02:00,
2013-04-11 18:07:00,42.3,37.8,29.55,NW,315,3.8,11.5,84,0.00,OVC,FEW,0.09,WeatherDisplay:10.37,2013-04-11 23:07:00,
2013-04-11 18:13:00,42.1,37.6,29.56,NW,315,4.5,9.2,84,0.00,OVC,FEW,0.09,WeatherDisplay:10.37,2013-04-11 23:13:00,
2013-04-11 18:19:00,42.3,37.8,29.55,SW,225,0.7,3.5,84,0.00,OVC,FEW,0.09,WeatherDisplay:10.37,2013-04-11 23:19:00,
2013-04-11 18:24:00,42.1,37.6,29.55,NW,315,2.2,8.1,84,0.00,OVC,FEW,0.09,WeatherDisplay:10.37,2013-04-11 23:24:00,
2013-04-11 18:30:00,42.1,37.6,29.55,NW,315,3.1,9.2,84,0.00,OVC,FEW,0.09,WeatherDisplay:10.37,2013-04-11 23:30:00,
2013-04-11 18:35:00,42.1,37.6,29.55,SW,225,2.2,5.8,84,0.00,OVC,FEW,0.09,WeatherDisplay:10.37,2013-04-11 23:35:00,
2013-04-11 18:41:00,41.9,37.4,29.54,SW,225,2.2,5.8,84,0.00,OVC,FEW,0.09,WeatherDisplay:10.37,2013-04-11 23:41:00,
2013-04-11 18:47:00,42.1,37.6,29.55,SSW,202,2.2,6.0,84,0.00,OVC,FEW,0.09,WeatherDisplay:10.37,2013-04-11 23:47:00,
2013-04-11 18:52:00,42.1,37.6,29.55,SW,225,3.1,5.8,84,0.00,OVC,FEW,0.09,WeatherDisplay:10.37,2013-04-11 23:52:00,
2013-04-11 18:58:00,41.5,37.1,29.56,South,180,3.8,12.7,84,0.00,OVC,FEW,0.09,WeatherDisplay:10.37,2013-04-11 23:58:00,
2013-04-11 19:03:00,41.2,36.7,29.56,West,270,2.2,6.0,84,0.00,OVC,FEW,0.09,WeatherDisplay:10.37,2013-04-12 00:03:00,
2013-04-11 19:09:00,40.8,36.4,29.56,South,180,3.1,10.4,84,0.00,OVC,FEW,0.09,WeatherDisplay:10.37,2013-04-12 00:09:00,
2013-04-11 19:15:00,40.3,35.8,29.57,SW,225,2.2,8.1,84,0.00,OVC,FEW,0.09,WeatherDisplay:10.37,2013-04-12 00:15:00,
2013-04-11 19:20:00,40.1,35.7,29.56,NW,315,1.6,8.1,84,0.00,OVC,FEW,0.09,WeatherDisplay:10.37,2013-04-12 00:20:00,
2013-04-11 19:27:00,40.1,35.7,29.57,West,270,3.1,9.2,84,0.00,OVC,FEW,0.09,WeatherDisplay:10.37,2013-04-12 00:27:00,
2013-04-11 19:32:00,40.1,35.7,29.57,SW,225,3.1,7.6,84,0.00,OVC,FEW,0.09,WeatherDisplay:10.37,2013-04-12 00:32:00,
2013-04-11 19:38:00,40.1,35.7,29.57,West,270,1.6,8.1,84,0.00,OVC,FEW,0.09,WeatherDisplay:10.37,2013-04-12 00:38:00,
2013-04-11 19:43:00,40.1,35.7,29.58,SW,225,2.2,5.4,84,0.00,OVC,FEW,0.09,WeatherDisplay:10.37,2013-04-12 00:43:00,
2013-04-11 19:49:00,40.1,35.7,29.57,WSW,248,2.2,5.8,84,0.00,OVC,FEW,0.09,WeatherDisplay:10.37,2013-04-12 00:49:00,
2013-04-11 19:55:00,40.1,35.7,29.57,WSW,248,2.2,3.8,84,0.00,OVC,FEW,0.09,WeatherDisplay:10.37,2013-04-12 00:55:00,
2013-04-11 20:00:00,40.1,35.7,29.56,SW,225,2.2,6.0,84,0.00,OVC,FEW,0.09,WeatherDisplay:10.37,2013-04-12 01:00:00,
2013-04-11 20:07:00,40.1,35.7,29.56,SW,225,2.2,5.8,84,0.00,OVC,FEW,0.09,WeatherDisplay:10.37,2013-04-12 01:07:00,
2013-04-11 20:12:00,40.1,35.7,29.56,SW,225,1.6,4.6,84,0.00,OVC,FEW,0.09,WeatherDisplay:10.37,2013-04-12 01:12:00,
2013-04-11 20:18:00,39.9,35.5,29.56,West,270,5.4,11.4,84,0.00,OVC,FEW,0.09,WeatherDisplay:10.37,2013-04-12 01:18:00,
2013-04-11 20:23:00,39.9,35.5,29.56,West,270,0.7,8.1,84,0.00,OVC,FEW,0.09,WeatherDisplay:10.37,2013-04-12 01:23:00,
2013-04-11 20:29:00,39.6,35.1,29.56,South,180,2.2,9.2,84,0.00,OVC,FEW,0.09,WeatherDisplay:10.37,2013-04-12 01:29:00,
2013-04-11 20:35:00,39.2,34.8,29.56,SW,225,3.1,6.0,84,0.00,OVC,FEW,0.09,WeatherDisplay:10.37,2013-04-12 01:35:00,
2013-04-11 20:40:00,39.0,34.6,29.56,West,270,1.6,5.8,84,0.00,OVC,FEW,0.09,WeatherDisplay:10.37,2013-04-12 01:40:00,
2013-04-11 20:46:00,38.7,34.2,29.56,SW,225,3.1,5.8,84,0.00,OVC,FEW,0.09,WeatherDisplay:10.37,2013-04-12 01:46:00,
2013-04-11 20:51:00,38.7,34.2,29.56,SW,225,1.6,5.8,84,0.00,OVC,FEW,0.09,WeatherDisplay:10.37,2013-04-12 01:51:00,
2013-04-11 20:57:00,38.5,34.1,29.56,South,180,3.1,5.8,84,0.00,OVC,FEW,0.09,WeatherDisplay:10.37,2013-04-12 01:57:00,
2013-04-11 21:03:00,38.5,34.1,29.57,West,270,0.7,3.5,84,0.00,OVC,FEW,0.09,WeatherDisplay:10.37,2013-04-12 02:03:00,
2013-04-11 21:08:00,38.5,34.1,29.57,South,180,3.1,5.8,84,0.00,OVC,FEW,0.09,WeatherDisplay:10.37,2013-04-12 02:08:00,
2013-04-11 21:14:00,38.5,34.1,29.57,West,270,0.7,5.8,84,0.00,OVC,FEW,0.09,WeatherDisplay:10.37,2013-04-12 02:14:00,
2013-04-11 21:19:00,38.5,33.8,29.57,West,270,2.2,8.1,83,0.00,OVC,FEW,0.09,WeatherDisplay:10.37,2013-04-12 02:19:00,
2013-04-11 21:25:00,38.5,33.5,29.57,SW,225,4.5,8.3,82,0.00,OVC,FEW,0.09,WeatherDisplay:10.37,2013-04-12 02:25:00,
2013-04-11 21:31:00,38.7,33.6,29.57,WNW,292,3.1,8.1,82,0.00,OVC,FEW,0.09,WeatherDisplay:10.37,2013-04-12 02:31:00,
2013-04-11 21:36:00,38.5,33.2,29.57,SW,225,3.8,8.1,81,0.00,OVC,FEW,0.09,WeatherDisplay:10.37,2013-04-12 02:36:00,
2013-04-11 21:42:00,38.5,32.2,29.57,West,270,1.6,6.9,78,0.00,OVC,FEW,0.09,WeatherDisplay:10.37,2013-04-12 02:42:00,
2013-04-11 21:48:00,38.5,32.2,29.58,NNW,338,3.8,6.0,78,0.00,OVC,FEW,0.09,WeatherDisplay:10.37,2013-04-12 02:48:00,
2013-04-11 21:54:00,38.5,32.2,29.58,NW,315,0.7,5.8,78,0.00,OVC,FEW,0.09,WeatherDisplay:10.37,2013-04-12 02:54:00,
2013-04-11 21:59:00,38.3,32.4,29.58,NW,315,0.0,5.8,79,0.00,OVC,FEW,0.09,WeatherDisplay:10.37,2013-04-12 02:59:00,
2013-04-11 22:05:00,38.3,32.4,29.58,SW,225,2.2,8.1,79,0.00,OVC,FEW,0.09,WeatherDisplay:10.37,2013-04-12 03:05:00,
2013-04-11 22:11:00,38.3,32.7,29.58,West,270,2.2,3.5,80,0.00,OVC,FEW,0.09,WeatherDisplay:10.37,2013-04-12 03:11:00,
2013-04-11 22:16:00,38.1,31.9,29.59,West,270,0.7,6.9,78,0.00,OVC,FEW,0.09,WeatherDisplay:10.37,2013-04-12 03:16:00,
2013-04-11 22:22:00,38.1,31.9,29.58,NW,315,2.2,5.8,78,0.00,OVC,FEW,0.09,WeatherDisplay:10.37,2013-04-12 03:22:00,
2013-04-11 22:27:00,38.1,31.5,29.59,SW,225,2.2,8.1,77,0.00,OVC,FEW,0.09,WeatherDisplay:10.37,2013-04-12 03:27:00,
2013-04-11 22:33:00,37.9,31.7,29.59,SW,225,2.2,8.1,78,0.00,OVC,FEW,0.09,WeatherDisplay:10.37,2013-04-12 03:33:00,
2013-04-11 22:39:00,37.9,31.4,29.58,NW,315,0.7,5.8,77,0.00,OVC,FEW,0.09,WeatherDisplay:10.37,2013-04-12 03:39:00,
2013-04-11 22:44:00,37.8,31.2,29.58,SW,225,0.7,9.2,77,0.00,OVC,FEW,0.09,WeatherDisplay:10.37,2013-04-12 03:44:00,
2013-04-11 22:50:00,37.8,31.5,29.58,SW,225,2.2,3.5,78,0.00,OVC,FEW,0.09,WeatherDisplay:10.37,2013-04-12 03:50:00,
2013-04-11 22:55:00,37.8,31.2,29.58,SW,225,3.8,6.9,77,0.00,OVC,FEW,0.09,WeatherDisplay:10.37,2013-04-12 03:55:00,
2013-04-11 23:00:00,37.6,30.7,29.57,South,180,3.1,10.4,76,0.00,OVC,FEW,0.09,WeatherDisplay:10.37,2013-04-12 04:00:00,
2013-04-11 23:02:00,37.6,30.7,29.57,NW,315,2.2,10.4,76,0.00,OVC,FEW,0.09,WeatherDisplay:10.37,2013-04-12 04:02:00,
2013-04-11 23:03:00,37.6,30.7,29.57,SW,225,3.1,8.1,76,0.00,OVC,FEW,0.09,WeatherDisplay:10.37,2013-04-12 04:03:00,
2013-04-11 23:04:00,37.6,30.7,29.57,NW,315,1.6,5.8,76,0.00,OVC,FEW,0.09,WeatherDisplay:10.37,2013-04-12 04:04:00,
2013-04-11 23:10:00,37.6,30.7,29.58,NW,315,1.6,3.8,76,0.00,OVC,FEW,0.09,WeatherDisplay:10.37,2013-04-12 04:10:00,
2013-04-11 23:15:00,37.4,30.8,29.58,West,270,2.2,5.8,77,0.00,OVC,FEW,0.09,WeatherDisplay:10.37,2013-04-12 04:15:00,
2013-04-11 23:21:00,37.6,31.3,29.58,West,270,1.6,6.9,78,0.00,OVC,FEW,0.09,WeatherDisplay:10.37,2013-04-12 04:21:00,
2013-04-11 23:27:00,37.4,31.2,29.58,SW,225,0.7,5.8,78,0.00,OVC,FEW,0.09,WeatherDisplay:10.37,2013-04-12 04:27:00,
2013-04-11 23:32:00,37.4,31.5,29.58,South,180,0.0,1.6,79,0.00,OVC,FEW,0.09,WeatherDisplay:10.37,2013-04-12 04:32:00,
2013-04-11 23:38:00,37.6,31.3,29.58,SW,225,2.2,6.0,78,0.00,OVC,FEW,0.09,WeatherDisplay:10.37,2013-04-12 04:38:00,
2013-04-11 23:43:00,37.4,31.5,29.58,South,180,0.7,3.5,79,0.00,OVC,FEW,0.09,WeatherDisplay:10.37,2013-04-12 04:43:00,
2013-04-11 23:49:00,37.4,31.5,29.58,West,270,0.7,5.8,79,0.00,OVC,FEW,0.09,WeatherDisplay:10.37,2013-04-12 04:49:00,
2013-04-11 23:55:00,37.4,31.5,29.58,West,270,0.0,3.5,79,0.00,OVC,FEW,0.09,WeatherDisplay:10.37,2013-04-12 04:55:00,